Wind_Speed
50 50 49 49 49 49 50 50 49 48 47 46 46 45 44 45 46 46 47 46 45 45 43 43 43 43 42 41 41 40 39 39 40 39 39 39 39 39
49 49 49 48 48 49 49 50 51 50 48 47 48 46 45 45 45 45 45 45 45 45 44 43 42 43 43 42 41 40 40 40 39 39 39 39 39 38
46 47 47 47 48 49 49 50 50 49 48 47 48 48 46 45 45 44 43 43 44 44 43 43 42 42 42 41 40 39 39 39 39 38 38 38 38 38
43 45 46 47 47 48 48 48 48 47 47 46 46 46 45 45 44 43 42 43 43 43 43 42 42 41 40 39 39 39 39 39 38 38 38 38 37 37
42 43 45 46 47 47 47 47 46 46 45 45 44 44 44 44 44 43 41 41 41 41 41 41 41 40 40 39 39 38 38 38 38 38 37 36 35 35
42 42 43 44 45 46 46 47 47 46 45 43 42 42 42 42 41 41 40 39 39 39 39 40 39 39 39 39 39 38 37 37 36 36 36 35 34 34
38 39 40 40 41 42 44 45 45 45 45 43 42 41 39 39 39 39 39 38 37 38 38 40 39 39 38 37 37 36 35 34 34 34 34 33 34 34
35 35 35 35 36 38 39 41 41 41 42 42 41 39 38 38 38 37 37 37 37 39 38 37 38 38 38 37 36 34 33 33 33 33 33 33 34 33
33 33 33 33 34 35 37 39 39 38 38 38 37 37 37 37 37 36 35 35 36 37 37 36 36 35 36 35 34 33 33 32 32 32 31 32 32 31
31 32 32 33 34 35 35 36 38 39 38 37 37 37 37 36 37 37 36 35 35 36 37 35 34 35 34 34 33 32 32 31 31 31 31 31 30 29
31 32 32 33 34 35 35 35 35 36 36 36 37 37 37 37 36 36 35 34 34 34 34 34 33 33 33 32 32 31 30 30 29 30 30 29 28 29
29 30 32 33 33 34 34 34 34 33 34 34 35 36 37 36 35 35 34 34 33 33 33 32 32 31 31 30 30 30 29 29 29 29 29 28 28 28
27 28 30 30 30 31 31 31 31 31 32 33 34 34 35 34 34 33 32 32 31 31 30 30 30 29 29 28 28 27 28 28 28 28 27 26 26 27
25 25 25 26 27 27 27 27 28 28 28 30 30 30 31 31 30 30 29 28 28 27 27 27 28 28 27 26 26 25 26 26 26 26 25 24 24 24
24 24 23 24 24 24 24 25 26 26 26 27 28 28 28 28 28 28 27 26 26 26 25 25 25 25 24 24 23 23 23 23 23 23 23 22 22 21
24 22 21 21 21 21 21 22 22 23 24 25 26 26 26 27 27 27 26 25 25 24 24 23 23 24 23 22 22 22 22 22 21 21 21 21 21 21
21 20 20 19 19 20 20 20 20 21 21 23 24 25 26 26 26 26 25 24 23 23 23 22 22 22 23 23 22 22 21 21 20 20 20 20 20 20
19 18 17 17 17 17 17 18 19 19 20 20 22 23 23 24 24 24 23 22 22 21 21 21 20 20 20 19 19 19 19 19 19 19 18 18 18 18
15 15 15 15 15 15 15 16 17 17 18 18 19 20 20 21 21 22 21 21 20 20 20 19 19 19 18 18 17 17 18 18 19 18 17 17 17 17
13 13 14 14 14 14 14 15 15 15 16 17 17 18 18 19 19 19 19 19 19 19 19 19 18 18 18 17 17 17 17 17 18 18 17 17 17 17
12 12 12 12 13 13 13 13 13 13 15 16 16 16 16 17 17 17 18 18 18 18 18 18 18 18 18 18 17 16 16 16 16 16 16 16 15 14
11 11 11 11 11 12 12 12 12 12 13 14 14 14 14 14 15 16 16 16 17 17 18 19 19 19 19 18 16 15 15 14 14 14 15 15 14 14
10 10 10 9 9 10 10 10 10 11 12 12 12 12 13 13 13 13 13 14 15 16 17 18 19 19 18 17 17 16 15 15 14 15 15 15 15 15
Wind_Direction
259 260 260 260 260 260 261 261 262 263 262 261 260 261 263 263 264 262 262 263 263 265 267 268 269 270 272 274 274 276 276 275 276 278 281 284 285 286
260 260 259 260 260 261 261 261 262 263 262 262 260 259 261 263 264 264 263 263 263 264 267 268 269 269 271 272 273 275 274 275 276 278 281 283 285 286
260 258 258 260 260 260 260 261 261 262 262 263 262 261 261 263 263 263 263 264 264 264 266 268 269 269 269 270 272 273 273 275 276 277 280 282 284 286
261 260 259 260 260 260 259 260 261 260 262 262 262 262 261 262 262 263 264 264 264 265 266 267 269 269 270 272 272 272 273 274 275 276 279 281 283 284
261 262 261 260 260 259 258 259 260 259 260 260 261 262 262 261 261 261 264 264 264 266 267 267 269 270 271 272 272 271 272 275 275 276 279 281 282 283
264 264 262 261 261 260 259 259 259 259 259 259 259 260 260 259 260 262 262 263 265 266 267 267 268 269 270 271 271 270 271 274 276 277 278 280 281 283
265 264 262 262 261 260 259 259 259 259 258 258 257 257 257 257 258 260 261 263 265 266 268 268 268 269 269 270 269 269 270 273 275 277 278 279 281 283
265 265 263 263 262 261 260 258 257 258 257 256 256 256 256 256 258 259 260 262 264 265 267 268 268 267 267 267 268 267 269 272 273 275 277 278 280 282
266 265 263 264 263 260 260 258 257 257 257 256 255 255 255 254 255 257 259 262 264 266 266 267 268 268 268 267 267 268 270 270 271 274 277 279 280 282
267 268 267 264 262 261 260 260 258 256 256 255 254 253 253 252 254 256 259 261 263 265 266 266 268 269 269 267 265 266 267 269 270 273 276 278 279 279
268 267 265 264 263 261 261 260 260 258 257 255 252 250 251 253 254 257 259 262 264 266 266 265 266 267 267 266 264 263 265 266 269 271 274 275 276 278
268 268 266 264 263 262 261 260 260 258 257 254 251 251 252 253 255 258 261 264 266 266 265 264 264 265 265 264 262 261 262 265 269 271 273 272 274 277
270 271 267 264 262 261 260 259 258 257 256 253 250 250 251 252 254 257 260 263 263 263 262 263 263 263 263 262 260 260 263 265 268 271 272 271 274 277
271 272 270 265 264 263 261 259 260 258 257 252 248 248 249 249 252 255 258 260 261 261 261 261 262 262 261 259 258 260 263 265 268 269 269 270 274 278
273 273 271 268 265 264 263 263 262 260 257 252 247 246 246 248 250 253 255 256 259 260 259 259 259 258 256 255 256 258 262 265 267 267 267 270 273 278
271 271 269 268 266 264 264 265 263 261 257 252 245 244 245 247 247 250 253 254 255 257 257 255 254 252 252 255 259 261 263 265 265 265 267 270 273 277
270 268 267 266 265 264 263 264 262 259 254 250 246 246 246 246 247 249 250 250 253 252 251 251 251 252 252 256 259 261 263 264 264 265 268 270 273 275
268 268 265 264 264 265 264 263 263 260 254 247 246 245 244 243 244 246 245 247 249 246 246 248 248 250 252 255 259 261 262 264 264 265 267 267 270 275
267 266 265 263 264 265 266 264 264 261 252 244 244 243 241 243 243 242 242 242 241 241 243 244 244 244 248 252 254 258 263 264 264 264 265 268 271 275
267 264 264 264 264 264 266 264 262 258 248 244 243 242 242 242 239 238 238 238 239 241 241 241 239 240 243 249 253 259 264 264 263 263 266 269 271 274
265 263 263 264 262 262 264 263 260 254 249 241 240 240 241 239 237 238 238 237 238 238 237 238 238 241 244 248 252 257 260 260 261 263 267 271 270 276
261 260 261 262 260 261 264 262 256 251 248 243 238 239 238 239 240 241 239 239 238 238 238 238 239 242 244 247 251 255 257 257 260 265 270 271 271 276
261 260 261 261 261 262 262 260 255 248 242 237 235 237 237 238 239 238 237 240 242 242 242 240 240 242 244 247 251 254 256 257 260 265 270 271 272 274
Height
5621 5623 5624 5626 5627 5628 5629 5630 5633 5635 5637 5638 5638 5639 5639 5640 5641 5641 5642 5643 5644 5645 5645 5646 5646 5646 5646 5646 5645 5645 5644 5644 5643 5642 5640 5639 5636 5634
5609 5611 5612 5613 5614 5616 5617 5618 5619 5622 5624 5627 5627 5627 5628 5629 5629 5630 5631 5632 5632 5633 5634 5634 5635 5635 5635 5635 5635 5634 5634 5633 5632 5632 5630 5628 5626 5624
5596 5598 5600 5601 5602 5604 5605 5606 5607 5609 5612 5615 5615 5616 5617 5618 5618 5619 5619 5620 5621 5622 5622 5623 5623 5623 5623 5624 5624 5624 5624 5623 5622 5621 5620 5618 5616 5614
5584 5585 5587 5588 5590 5591 5592 5594 5595 5597 5599 5602 5603 5604 5605 5606 5607 5608 5609 5610 5611 5611 5611 5612 5612 5612 5613 5613 5613 5613 5613 5613 5612 5611 5610 5609 5607 5604
5572 5574 5575 5576 5577 5579 5580 5581 5583 5585 5586 5589 5591 5592 5594 5595 5596 5597 5598 5599 5600 5600 5600 5601 5602 5602 5602 5603 5603 5603 5603 5603 5602 5602 5600 5599 5597 5595
5561 5562 5564 5564 5566 5567 5568 5569 5571 5573 5574 5577 5579 5581 5582 5583 5585 5587 5588 5589 5590 5590 5590 5591 5591 5591 5592 5592 5593 5593 5593 5593 5592 5592 5591 5590 5588 5586
5551 5552 5553 5553 5554 5555 5556 5558 5559 5561 5563 5565 5567 5570 5571 5573 5575 5577 5578 5579 5580 5580 5581 5581 5582 5582 5582 5582 5583 5583 5584 5583 5583 5582 5581 5580 5579 5578
5542 5542 5542 5543 5543 5544 5545 5547 5548 5550 5552 5554 5556 5559 5561 5563 5565 5566 5568 5570 5571 5572 5572 5571 5571 5572 5572 5573 5573 5574 5574 5574 5574 5573 5572 5572 5571 5570
5533 5533 5533 5533 5534 5534 5535 5537 5538 5539 5541 5543 5546 5548 5551 5553 5556 5558 5558 5559 5561 5561 5562 5562 5561 5562 5562 5563 5564 5565 5565 5565 5565 5565 5564 5564 5562 5561
5525 5524 5524 5524 5525 5525 5526 5527 5528 5529 5531 5533 5536 5539 5541 5543 5545 5548 5549 5550 5550 5550 5551 5552 5552 5553 5553 5554 5555 5556 5556 5557 5557 5557 5556 5555 5554 5553
5516 5516 5516 5516 5516 5516 5517 5518 5519 5519 5520 5522 5525 5528 5531 5533 5535 5538 5539 5541 5541 5541 5542 5543 5544 5544 5545 5545 5546 5547 5548 5549 5549 5549 5548 5547 5547 5546
5508 5507 5507 5507 5506 5506 5507 5507 5508 5509 5511 5513 5515 5518 5521 5523 5526 5528 5530 5531 5532 5533 5533 5534 5535 5536 5537 5537 5538 5539 5540 5540 5541 5541 5541 5540 5540 5539
5500 5499 5498 5497 5497 5497 5497 5498 5499 5500 5501 5503 5506 5509 5512 5514 5516 5519 5521 5522 5523 5524 5525 5525 5527 5527 5528 5530 5530 5531 5532 5533 5533 5533 5533 5533 5533 5532
5492 5491 5490 5489 5489 5489 5489 5489 5490 5491 5492 5494 5497 5500 5503 5505 5508 5510 5511 5513 5514 5515 5516 5517 5518 5519 5521 5522 5523 5524 5525 5525 5526 5526 5526 5526 5526 5525
5485 5484 5483 5482 5482 5482 5482 5482 5482 5483 5484 5487 5489 5492 5495 5497 5499 5501 5503 5505 5506 5507 5508 5509 5510 5512 5514 5516 5517 5518 5518 5518 5519 5519 5520 5520 5520 5519
5477 5477 5476 5476 5476 5476 5476 5476 5476 5477 5478 5480 5482 5485 5487 5490 5492 5494 5496 5497 5499 5500 5501 5502 5504 5506 5507 5509 5511 5512 5512 5513 5513 5513 5514 5514 5514 5514
5470 5470 5470 5470 5470 5470 5470 5470 5470 5471 5472 5473 5476 5478 5480 5483 5485 5487 5489 5491 5493 5494 5495 5497 5498 5500 5502 5503 5505 5506 5507 5507 5508 5508 5509 5509 5509 5509
5465 5464 5464 5464 5464 5464 5464 5465 5465 5465 5466 5468 5470 5472 5474 5476 5478 5480 5483 5485 5487 5489 5490 5492 5493 5495 5497 5498 5500 5500 5501 5501 5502 5503 5504 5504 5504 5503
5460 5460 5460 5460 5459 5460 5460 5460 5460 5460 5461 5463 5465 5467 5469 5471 5473 5475 5477 5479 5482 5484 5485 5487 5488 5490 5492 5494 5495 5496 5496 5496 5497 5498 5498 5499 5499 5498
5456 5456 5456 5456 5456 5456 5455 5456 5456 5456 5457 5459 5460 5462 5464 5466 5468 5470 5472 5475 5476 5478 5480 5482 5483 5485 5488 5489 5490 5491 5491 5492 5492 5493 5493 5493 5493 5493
5452 5452 5452 5452 5452 5452 5452 5452 5453 5453 5454 5455 5457 5458 5460 5462 5464 5466 5468 5470 5471 5473 5475 5477 5479 5481 5483 5484 5485 5486 5487 5487 5488 5488 5488 5488 5489 5489
5449 5449 5449 5449 5449 5449 5449 5449 5449 5450 5451 5452 5453 5455 5457 5458 5460 5462 5464 5465 5467 5469 5471 5473 5475 5476 5478 5479 5481 5482 5483 5483 5483 5483 5483 5484 5484 5484
5447 5447 5447 5446 5446 5446 5446 5446 5446 5447 5448 5450 5451 5452 5454 5455 5457 5458 5460 5461 5463 5465 5466 5468 5470 5472 5473 5475 5476 5477 5477 5478 5479 5479 5479 5479 5479 5479